Flag for Malaysia Weather past 2 weeks in Langkawi, Malaysia

Now
84 °F

Passing clouds.


Feels Like: 96 °F
Forecast: 79 / 85 °F
Wind: No wind

Location: Langkawi

Current Time: Oct 1, 2014 at 8:36:11 PM

Latest Report: Oct 1, 2014 at 8:00 PM


Visibility: N/A

Pressure: 29.83 "Hg

Humidity: 84%

Dew point: 79 °F

Location of LangkawiLocation

Historic Weather in Langkawi — Graph

°F

Langkawi temperature yesterday

Maximum temperature yesterday: 88 °F (at 1:00 PM)
Minimum temperature yesterday: 77 °F (at 5:00 AM)
Average temperature yesterday: 81 °F

Past Weeks' High & Low Weather Summary

 TemperatureHumidityPressure
High91 °F (Sep 18, 12:00 PM)100% (Sep 19, 6:00 AM)29.98 "Hg (Sep 19, 6:00 AM)
Low77 °F (Sep 22, 2:00 AM)67% (Sep 18, 12:00 PM)29.68 "Hg (Sep 16, 7:00 PM)
Average82 °F87%29.83 "Hg
* Reported Sep 16 7:00 PM — Oct 1 7:00 PM, Langkawi, Weather by CustomWeather, © 2014

Note: Actual official high and low records may vary slightly from our data, if they occured in-between our weather recording intervals... More about our weather records

Advertising

Langkawi weather history for previous 24 hours

 ConditionsComfort  
Time TempWeatherWind HumidityBarometerVisibility
7:00 PM
Oct 1
86 °FPartly sunny.No wind84%29.80 "HgN/A
6:00 PM88 °FPartly sunny.1 mph75%29.77 "HgN/A
5:00 PM86 °FPartly sunny.2 mph84%29.74 "HgN/A
4:00 PM84 °FBroken clouds.1 mph84%29.74 "HgN/A
3:00 PM82 °FBroken clouds.2 mph89%29.77 "HgN/A
2:00 PM79 °FBroken clouds.5 mph94%29.83 "HgN/A
1:00 PM82 °FThunderstorms. Broken clouds.7 mph84%29.86 "Hg4 mi
12:00 PM88 °FBroken clouds.7 mph79%29.86 "Hg5 mi
11:00 AM86 °FBroken clouds.3 mph79%29.86 "Hg6 mi
10:00 AM86 °FPartly sunny.1 mph79%29.86 "Hg5 mi
9:00 AM82 °FPartly sunny.2 mph89%29.86 "Hg5 mi
8:00 AM79 °FBroken clouds.No wind94%29.83 "Hg5 mi
7:00 AM77 °FPassing clouds.1 mph94%29.83 "Hg4 mi
6:00 AM77 °FPartly cloudy.1 mph100%29.80 "Hg4 mi
5:00 AM79 °FPartly cloudy.2 mph94%29.80 "Hg5 mi
4:00 AM79 °FPartly cloudy.No wind94%29.77 "HgN/A
3:00 AM79 °FPartly cloudy.3 mph94%29.80 "HgN/A
2:00 AM79 °FPartly cloudy.2 mph94%29.83 "HgN/A
1:00 AM79 °FPartly cloudy.1 mph94%29.83 "HgN/A
12:00 AM79 °FPartly cloudy.2 mph94%29.86 "HgN/A
11:00 PM
Sep 30
79 °FPartly cloudy.5 mph94%29.86 "Hg5 mi
10:00 PM79 °FPartly cloudy.2 mph94%29.83 "Hg5 mi
9:00 PM79 °FPartly cloudy.3 mph94%29.86 "Hg5 mi
8:00 PM79 °FPartly cloudy.3 mph94%29.83 "HgN/A
Weather by CustomWeather, © 2014

See weather overviewHow to use our weather pages